Temp_Advection
nan nan nan nan nan nan nan nan nan nan nan nan nan nan nan nan nan nan nan nan nan nan nan nan nan nan nan nan nan nan nan nan nan nan nan nan nan nan nan nan nan nan nan nan nan nan nan nan nan nan nan nan nan nan nan nan nan nan nan nan nan nan nan nan nan nan nan nan nan
nan -0 -0 -0 -0 -0 0 1 0 0 1 0 0 0 0 0 0 0 0 0 0 0 0 0 0 0 0 0 0 0 0 0 0 0 0 0 0 0 0 0 0 0 0 0 0 0 0 0 0 0 0 0 0 0 0 0 0 0 -0 -0 -0 -0 -0 -0 -0 -0 -0 -0 nan
nan 0 0 -0 0 1 1 1 0 1 1 1 1 0 0 0 0 0 0 0 0 0 0 0 0 0 0 0 0 0 0 0 0 0 0 0 0 0 0 0 0 0 0 0 0 0 0 0 0 0 0 0 0 0 0 -0 -0 0 -0 -0 -0 -0 -0 -0 -0 -0 -0 -0 nan
nan 0 0 0 0 1 1 0 0 0 1 1 1 0 0 0 0 0 0 0 0 0 0 0 0 0 0 0 0 0 0 0 0 0 0 0 0 0 0 0 0 0 0 0 0 0 -0 0 0 0 0 0 0 0 -0 -0 -0 -0 -0 -0 -0 -0 -0 -0 -0 -0 -0 -0 nan
nan 1 0 -0 -0 -0 0 0 0 0 0 1 1 1 0 0 0 0 0 0 0 0 0 0 0 0 0 0 0 0 0 0 0 0 0 0 0 0 0 0 0 0 0 0 -0 -0 0 0 -0 -0 0 0 -0 -0 -0 -0 -0 -0 -0 -0 -0 -0 -0 0 -0 -0 -0 -0 nan
nan 1 0 -1 -2 -1 -1 -0 0 0 1 1 1 1 0 0 0 0 0 0 0 0 0 0 0 0 0 0 0 0 0 0 0 0 0 0 0 0 0 0 0 0 -0 -0 -0 0 -0 -0 -0 -0 -0 -0 -0 -0 -0 -0 -0 -0 -0 -0 -0 -0 0 0 -0 -0 -0 -0 nan
nan 1 -1 -2 -2 -1 -0 -0 -0 0 0 1 0 0 0 0 0 0 0 0 0 0 0 0 0 0 0 0 0 0 0 0 0 0 0 0 0 0 0 -0 -0 -0 -0 0 0 -0 -0 -0 -0 -0 -0 -0 -0 -0 -0 -0 -0 -0 -0 -0 -0 -0 0 0 0 -0 -0 -0 nan
nan 1 -2 -4 -3 -1 0 0 -0 -0 -0 0 0 0 0 0 0 0 0 1 1 1 1 1 0 0 0 0 0 0 0 0 0 0 0 0 -0 -0 -0 -0 0 0 0 0 -0 -0 -0 -0 -0 -0 -0 -0 -0 -0 -0 -0 -0 -0 -0 -0 -0 -0 -0 0 0 0 0 0 nan
nan 0 -3 -4 -3 -1 0 0 -0 -1 -1 0 0 0 0 0 0 1 1 1 1 1 1 0 0 0 0 0 0 0 0 0 0 0 0 0 0 0 -0 -0 -0 0 0 0 0 0 -0 -0 -0 0 0 0 0 0 0 -0 -0 -0 -0 -0 -0 -0 -0 -0 0 0 0 0 nan
nan -1 -3 -5 -4 -2 -0 0 -0 -1 -1 -0 -0 0 0 0 1 1 1 1 1 1 1 0 0 0 -0 -0 -0 -0 -0 -0 0 0 0 0 0 0 0 -0 0 0 0 0 0 0 0 0 0 0 0 0 0 0 0 0 -0 -0 -0 -0 -0 -0 -0 -0 -0 -0 0 0 nan
nan -0 -2 -4 -4 -2 -1 -0 -0 -1 -1 -1 -0 0 0 1 1 1 1 1 1 1 1 0 -0 -0 -0 -0 -0 -0 -0 -0 -0 -0 -0 0 0 0 0 0 -0 0 0 0 0 0 0 0 0 0 0 0 0 0 0 0 0 -0 -0 -0 -0 -0 -0 -0 -0 -0 0 -0 nan
nan 1 -1 -3 -4 -2 -1 -0 0 -0 -0 -0 0 1 1 1 1 1 1 1 1 1 0 0 -0 0 0 -0 -0 -0 -0 -1 -1 -1 -0 -0 0 0 0 0 0 0 0 0 0 0 0 0 -0 0 0 1 1 1 0 -0 -0 -0 0 0 0 0 -0 -0 0 0 -0 -0 nan
nan 2 -1 -3 -3 -2 -1 0 1 1 1 1 1 2 2 1 1 1 1 0 0 0 0 0 0 0 0 -0 -0 -0 -0 -0 -0 -0 -0 -0 -0 -0 -0 -0 -0 -0 0 0 0 0 0 0 0 0 1 1 1 1 0 -1 -1 -1 0 1 0 0 0 0 0 0 -0 -1 nan
nan 2 -1 -4 -4 -2 -0 1 2 2 2 2 2 1 1 1 1 1 0 0 0 0 0 0 0 0 -0 -0 -0 -0 -0 -0 -0 -0 -0 -0 -0 -0 -0 -0 -0 -0 -0 -0 0 0 0 0 0 1 1 1 1 0 -0 -0 -1 -0 0 0 0 0 0 -0 -0 -0 -1 -1 nan
nan 2 -1 -4 -4 -2 0 2 2 2 2 1 1 1 1 1 1 0 0 0 0 0 0 0 0 -0 -0 -0 -0 -0 -0 -0 -0 -0 -0 -0 0 0 -0 -0 -0 -1 -1 -0 -0 -0 -0 0 0 1 0 0 0 -0 -0 -0 -0 0 0 -0 -0 -0 -0 -0 -0 -1 -1 -1 nan
nan 2 0 -2 -2 0 2 3 2 2 1 1 0 1 1 1 1 0 0 0 1 1 1 0 0 -0 -0 -0 -0 -0 -0 -0 -0 -0 -0 0 1 1 -0 -0 -0 -0 -0 -0 -0 -0 -0 0 -0 -0 -0 -0 0 -0 -0 -0 -0 0 -0 -0 -0 -0 -0 -0 -0 -0 -0 -0 nan
nan 2 1 -0 0 2 3 3 2 1 1 -0 -0 0 1 1 1 1 1 1 1 1 1 0 -0 -0 -0 -0 -0 -0 -0 -0 -0 -0 -0 0 1 0 -0 -0 -0 -0 -0 -0 -0 0 0 0 0 -0 -0 -0 0 -0 -0 -0 -0 -0 0 0 0 0 -0 -0 -0 -0 -0 -0 nan
nan 1 1 0 1 2 2 2 1 0 -1 -1 -0 1 1 2 2 1 1 1 1 1 0 0 -0 -0 -0 -0 -0 -0 -0 -0 0 0 0 0 0 0 -0 -0 -0 -0 -0 0 0 0 0 0 0 0 0 0 -0 -0 -0 -0 -0 -0 0 0 0 0 0 -0 -0 -0 -0 -0 nan
nan 0 1 1 1 1 1 1 -0 -1 -1 -1 1 2 2 2 2 1 1 1 0 0 0 -0 -0 -0 -0 -0 -0 -0 -0 0 0 1 0 0 0 0 -0 -0 -0 -0 -0 -0 0 0 0 0 0 0 -0 -0 0 -0 -0 -0 -0 -0 -0 -0 0 -0 -0 -0 -0 0 0 0 nan
nan 1 1 1 1 1 1 -0 -1 -1 -0 1 2 2 1 1 1 1 0 0 0 0 0 0 -0 -0 -0 -0 -0 0 0 0 0 0 0 0 0 0 -0 -0 -0 -0 -0 -0 0 0 0 0 0 0 0 0 0 -0 -0 -0 -0 -0 -0 -0 -0 -0 -0 -0 -0 -0 -0 -0 nan
nan 1 1 1 1 1 -0 -1 -0 0 1 1 1 1 1 0 0 0 0 0 0 0 0 0 -0 -0 -0 -0 0 1 0 -0 -0 0 0 0 0 0 0 -0 -0 -0 -0 -0 0 0 0 0 0 0 0 0 0 0 -0 -0 -0 -0 -0 -0 -0 -0 -0 -0 -0 -0 -0 -0 nan
nan 1 1 1 1 1 1 1 1 1 1 1 0 0 0 0 0 0 0 0 1 1 0 0 -0 -0 -0 0 0 0 0 -0 -0 0 0 0 0 0 0 -0 -0 -0 -0 -0 0 0 0 0 -0 -0 -0 0 0 0 -0 -0 -0 -0 -0 -0 -0 -0 -0 -0 -0 -0 -0 -0 nan
nan 1 1 1 1 1 1 2 1 1 0 0 0 0 0 0 0 0 0 0 1 1 0 0 0 0 0 0 0 0 -0 -0 0 0 0 0 0 0 -0 -0 -0 -0 -0 -0 0 0 0 -0 -0 -0 -0 0 0 0 0 0 -0 -0 -0 -0 -0 -0 -0 -0 -0 -0 -0 -0 nan
nan 0 0 0 1 1 1 1 0 0 -0 -0 0 0 0 0 0 0 0 0 1 1 0 0 0 0 0 0 0 0 -0 0 0 0 0 0 0 0 -0 -0 0 0 0 -0 -0 -0 -0 -0 -0 0 0 0 0 0 0 0 -0 -0 -0 -0 -0 -0 -0 -0 -0 -0 -0 -0 nan
nan 0 0 0 0 0 0 0 -0 -0 -0 0 0 0 0 0 0 0 0 1 1 0 0 0 0 0 0 0 -0 -0 0 0 0 0 0 0 0 -0 0 0 0 0 0 -0 -0 -0 -0 -0 0 0 0 0 0 0 0 0 -0 -0 -0 -0 -0 -0 -0 -0 -0 -0 -0 -0 nan
nan 0 0 0 0 0 -0 -0 -0 -0 0 1 1 1 1 1 0 0 1 0 0 0 0 0 0 0 0 -0 0 0 0 0 0 0 0 0 0 -0 0 0 0 0 -0 -0 -0 -0 -0 -0 0 0 0 -0 -0 -0 -0 -0 -0 -0 -0 -0 -0 -0 -0 -0 -0 -0 -0 -0 nan
nan 0 0 0 0 -0 -0 -0 -0 0 0 1 1 1 1 1 1 0 0 0 0 0 0 0 0 0 -0 0 0 0 0 0 0 0 0 0 -0 0 0 -0 -0 -0 -0 -0 -0 -0 -0 -0 0 0 0 0 0 -0 -0 -0 -0 -0 -0 -0 -0 -0 -0 -0 -0 -0 -0 -0 nan
nan 0 0 -0 -0 -0 -0 -0 -0 -0 0 0 1 1 1 0 0 0 0 0 0 0 0 0 0 0 0 0 0 0 0 0 0 0 0 -0 -0 0 -0 -0 -0 -0 -0 -0 -0 -0 -0 -0 -0 -0 0 0 0 0 -0 -0 -0 -0 -0 -0 -0 -0 -0 -0 -0 -0 -0 -0 nan
nan -0 -0 -0 -0 -0 -0 -0 -0 -0 -0 0 0 0 0 0 0 0 0 0 0 0 0 0 0 0 0 0 0 0 0 0 0 0 0 -0 0 0 0 -0 -0 -0 -0 -0 -0 -0 -0 -0 -0 -0 -0 0 0 0 0 -0 -0 -0 -0 -0 -0 -0 -0 -0 -0 -0 -0 -0 nan
nan -0 -0 -0 -0 -0 -0 -0 -0 -0 -0 0 0 0 0 0 0 0 0 0 0 0 -0 0 0 0 0 0 0 0 0 0 0 0 0 0 0 0 0 -0 -0 -0 -0 -0 -0 -0 -0 -0 -0 -0 -0 -0 -0 0 0 0 -0 -0 -0 -1 -1 -1 -1 -1 -1 -1 -0 -0 nan
nan -0 -0 -0 -0 -0 -0 -0 -0 -0 -0 -0 0 0 -0 0 0 0 0 0 0 0 0 0 0 0 0 0 0 0 0 0 0 0 0 0 0 0 0 -0 -0 -1 -0 -0 -0 -0 -0 -0 -0 -0 -0 -0 -0 -0 -0 0 0 0 -0 -0 -0 -1 -1 -1 -1 -1 -0 -0 nan
nan -0 -0 -0 -0 -0 -0 -0 -0 -0 -0 -0 -0 -0 0 0 0 -0 0 0 0 0 0 0 0 0 0 0 0 0 0 0 0 0 0 0 0 0 0 0 -0 -0 -0 -0 -0 -0 -0 -1 -0 -0 -0 -0 -0 -0 -0 -0 -0 0 0 0 -0 -0 -0 -1 -1 -1 -1 -0 nan
nan -0 -0 -0 -0 -0 -0 -0 -0 -0 -0 -0 -0 0 0 0 0 0 0 0 0 0 0 0 0 0 0 0 0 0 0 0 0 0 0 0 0 0 0 0 0 -0 -0 -0 -0 -0 -0 -0 -1 -1 -1 -1 -1 -1 -1 -0 -0 -0 -0 -0 -0 -0 -0 -0 -0 -1 -0 -0 nan
nan -0 -0 -0 -0 -0 -0 -0 -0 -0 -0 -0 -0 0 0 0 0 0 0 0 0 0 0 0 0 0 0 0 0 0 0 0 0 0 0 0 0 0 0 0 0 0 0 -0 -0 -0 -0 -0 -0 -1 -1 -1 -1 -1 -1 -1 -1 -1 -1 -1 -1 -0 -0 -0 -0 -0 -0 -0 nan
nan -0 -0 -0 -0 -0 -0 -0 -0 0 0 -0 -0 -0 0 0 0 0 0 0 0 0 0 0 0 0 0 0 0 0 0 0 0 0 0 -0 0 0 0 0 0 0 0 0 -0 -0 -0 -0 -0 -0 -1 -1 -1 -1 -1 -1 -1 -1 -1 -1 -1 -1 -1 -0 -0 -0 -0 -0 nan
nan -0 -0 -0 -0 -0 -0 -0 -0 -0 -0 -0 -0 -0 -0 0 0 0 0 0 0 0 0 0 0 0 0 0 0 0 0 -0 -0 -0 -0 -0 -0 -0 0 0 0 0 0 0 0 -0 -0 -0 -0 -0 -0 -1 -1 -1 -1 -1 -1 -1 -1 -1 -1 -1 -1 -1 -1 -0 -0 -0 nan
nan 0 -0 -0 -0 -0 -0 -0 -0 -0 -0 -0 -0 -0 -0 -0 0 0 0 0 0 0 0 0 0 0 0 0 0 0 0 -0 -0 -0 -0 -0 -0 -0 -0 -0 -0 -0 0 0 0 0 0 -0 -0 -0 -0 -0 -1 -1 -1 -1 -0 -1 -1 -1 -1 -1 -1 -1 -1 -1 -0 -0 nan
nan -0 -0 -0 -0 -0 -0 -0 -0 -0 -0 -0 0 0 0 0 -0 -0 0 0 0 0 0 0 0 0 0 0 -0 -0 -0 -0 -0 -0 -0 -0 -0 -0 -0 -0 -0 -0 -0 -0 -0 0 0 0 -0 0 0 -0 -0 -1 -1 -1 -0 -0 -0 -1 -1 -1 -1 -1 -1 -1 -1 -1 nan
nan -0 -0 -0 -0 -0 -0 -0 -0 -0 -0 -0 0 -0 -0 0 0 0 0 0 0 0 0 0 0 0 -0 -0 -0 -0 -0 -0 -0 -0 -0 -0 -0 -0 -0 -0 -0 -0 -0 -0 -0 -0 0 0 0 -0 0 -0 -0 -1 -1 -0 -0 -0 -0 -0 -0 -0 -1 -1 -1 -1 -1 -1 nan
nan -0 -0 -0 -0 -0 -0 -0 -0 -0 -0 -0 -0 -0 -0 -0 0 0 0 0 0 0 0 0 0 0 -0 -0 -0 -0 -0 -0 -0 -0 -0 -0 -0 -0 -0 -0 -0 -0 -0 -0 -0 -0 -0 -0 -0 -0 0 -0 -0 -0 -0 -0 -0 -0 -0 -0 0 -0 -0 -0 -0 -0 -0 -0 nan
nan nan nan nan nan nan nan nan nan nan nan nan nan nan nan nan nan nan nan nan nan nan nan nan nan nan nan nan nan nan nan nan nan nan nan nan nan nan nan nan nan nan nan nan nan nan nan nan nan nan nan nan nan nan nan nan nan nan nan nan nan nan nan nan nan nan nan nan nan
Wind_Speed
25 26 26 25 25 25 23 20 17 16 15 15 15 16 16 16 16 16 16 16 16 17 17 17 17 17 17 17 17 18 18 19 19 20 20 20 20 20 20 20 19 19 20 20 20 20 20 21 21 21 21 21 21 21 21 20 20 20 20 20 20 20 20 21 21 21 22 22 22
29 29 28 27 26 24 22 20 18 17 17 16 16 16 16 16 16 17 17 17 17 17 17 17 17 18 18 18 18 19 19 19 20 20 20 20 20 20 20 20 20 20 20 20 20 20 21 21 21 22 22 22 22 22 21 21 21 20 20 20 20 20 20 21 21 21 21 22 22
28 28 27 25 24 22 21 19 19 19 18 17 17 17 17 17 17 17 17 17 17 17 17 18 18 18 18 18 18 18 18 18 19 19 19 19 19 19 19 19 19 20 20 20 20 21 21 21 22 22 22 22 22 22 21 21 21 20 20 20 20 20 20 20 20 20 21 21 22
25 24 23 22 21 20 20 19 19 19 19 18 18 18 18 18 18 18 18 18 18 18 18 18 17 17 17 17 17 17 17 17 17 17 17 18 18 18 19 19 19 19 20 20 20 21 21 21 22 22 22 22 22 22 21 21 20 20 20 19 19 19 19 19 19 20 20 21 21
23 22 23 23 23 22 21 20 20 19 19 19 19 19 19 19 19 19 18 18 18 18 18 17 17 17 16 16 16 16 16 17 17 17 17 18 18 19 19 20 20 21 21 21 21 22 22 22 23 23 23 23 22 22 22 21 21 20 20 20 19 19 19 19 19 20 20 21 21
26 25 25 26 27 26 25 23 22 21 21 20 20 20 20 20 19 19 19 18 18 18 17 17 17 16 16 16 16 16 17 18 18 18 19 19 20 20 21 22 22 23 23 23 23 24 24 24 24 24 24 24 24 23 23 23 22 22 21 21 20 20 19 19 19 20 20 20 21
33 30 30 31 31 29 27 26 25 23 22 21 21 20 20 20 19 19 19 18 18 18 17 17 17 17 17 17 17 18 18 19 20 20 21 22 22 23 24 24 25 25 25 26 26 26 26 26 26 26 26 26 26 25 25 25 24 24 23 22 22 21 20 20 20 20 20 21 21
40 37 35 35 34 32 30 28 27 26 25 23 22 21 21 20 20 19 19 18 18 18 18 17 17 17 17 17 18 19 20 21 21 22 23 24 25 26 26 27 27 27 28 28 28 28 29 29 29 28 28 28 28 27 27 27 26 25 25 24 24 23 22 21 21 21 21 21 22
40 39 38 39 38 36 33 30 29 29 28 26 25 23 23 22 21 20 19 19 18 18 18 18 17 17 18 18 19 20 21 22 23 24 25 26 27 27 28 28 29 29 29 29 30 30 30 30 30 30 30 30 29 29 29 28 28 27 26 26 25 25 24 23 23 22 22 22 23
36 38 40 41 42 40 36 33 32 31 30 29 27 26 25 24 22 21 19 19 18 18 18 18 18 18 18 18 19 20 21 22 23 25 26 27 28 28 28 29 29 29 29 30 30 30 30 31 31 31 31 31 30 30 30 29 29 28 28 27 27 26 25 25 24 24 23 23 24
34 36 39 42 43 42 39 36 33 33 32 31 30 28 26 24 22 21 19 18 18 18 18 18 17 17 17 17 17 17 18 20 21 23 24 26 26 27 27 27 27 28 28 28 28 29 29 29 30 30 30 30 30 30 30 30 30 29 29 28 28 27 27 26 26 25 25 24 25
36 35 37 40 41 41 40 37 35 34 33 32 31 29 26 24 21 19 18 17 17 17 17 17 16 14 14 13 14 16 17 18 19 20 21 22 23 23 23 23 23 24 24 24 25 25 26 26 27 27 28 28 29 29 29 29 30 30 30 29 29 29 28 28 27 26 26 26 26
37 36 36 37 39 39 38 37 35 34 34 32 30 27 24 22 19 18 16 15 15 15 15 14 12 11 12 14 16 18 20 20 20 20 19 19 19 19 19 19 19 19 20 20 20 21 21 22 23 23 24 24 24 24 25 26 28 28 29 29 29 29 29 29 29 28 28 29 29
36 35 35 36 37 37 35 34 33 33 32 30 27 25 22 20 18 17 15 14 14 13 12 11 11 12 14 17 19 21 22 22 22 21 19 18 18 17 16 16 16 16 16 16 16 16 16 17 18 18 19 19 19 19 21 22 24 24 25 25 26 27 28 28 29 29 30 31 32
33 33 34 36 37 36 33 31 30 29 28 26 25 24 22 20 18 17 15 15 14 13 12 11 12 14 16 19 20 21 22 22 21 21 19 18 17 15 13 12 12 12 11 11 11 10 10 11 11 11 12 13 14 16 18 19 19 20 20 21 22 23 25 26 27 29 30 31 32
29 30 32 33 34 33 30 29 27 26 26 25 25 25 24 21 18 17 17 16 15 13 12 12 13 15 17 19 20 20 20 20 20 19 18 17 15 12 9 9 8 8 7 6 5 5 5 5 6 7 8 10 11 13 14 15 16 16 17 18 19 19 20 22 23 24 26 27 28
27 28 30 31 30 29 28 27 27 26 26 27 27 27 25 23 19 18 17 16 14 12 11 12 14 16 17 18 18 18 18 17 17 17 16 15 11 9 7 7 6 6 4 3 1 2 4 5 7 8 9 9 10 11 12 13 14 14 15 15 15 15 16 17 17 18 19 21 22
27 29 31 32 32 30 29 29 28 28 28 28 27 26 25 22 19 16 15 14 12 11 11 13 14 16 16 16 16 16 15 15 15 14 13 12 9 8 8 7 5 3 1 2 3 5 6 7 9 9 8 7 7 8 8 9 10 11 11 11 11 11 12 12 13 13 14 14 15
29 31 34 36 36 35 33 32 30 29 29 28 25 22 20 18 16 15 14 13 12 12 12 13 15 15 15 14 14 14 14 14 13 12 10 8 8 7 7 6 4 2 4 5 6 8 9 10 10 7 4 2 3 4 6 7 7 7 8 8 8 8 9 9 10 9 10 10 11
30 31 33 36 37 37 36 34 31 29 27 25 21 18 16 16 15 15 14 13 13 13 13 13 13 13 13 12 12 12 12 12 11 8 6 6 6 6 6 6 4 4 6 8 9 10 10 10 7 4 3 2 2 4 6 7 7 7 7 7 6 6 6 7 7 7 8 8 9
28 29 29 31 33 34 34 33 30 26 22 20 18 17 16 15 15 14 14 13 13 12 12 11 11 11 11 11 11 10 9 10 8 5 4 5 6 6 6 6 5 5 6 7 7 7 6 4 4 4 5 6 6 7 7 7 7 7 7 7 6 6 6 6 7 7 8 8 9
25 25 24 24 26 27 28 26 23 20 18 17 17 17 16 15 14 14 13 13 12 10 10 9 9 9 9 9 8 8 7 7 6 5 5 6 6 6 6 6 6 7 8 7 6 5 4 5 6 7 9 10 10 9 9 7 7 6 6 6 6 6 6 7 7 8 8 8 8
18 18 17 16 16 17 17 16 15 14 15 16 17 16 16 14 13 12 11 10 9 8 8 7 8 8 8 7 6 6 6 6 6 6 6 7 7 6 5 5 5 7 8 8 8 7 8 9 10 10 11 11 12 12 11 10 8 7 7 7 7 7 7 8 8 8 8 8 8
11 10 9 8 8 8 9 9 9 10 13 15 15 15 14 12 11 10 9 8 7 6 6 6 7 7 6 6 6 6 6 6 6 6 7 7 7 5 3 1 2 3 5 7 8 8 9 10 11 10 10 9 10 10 10 10 9 9 8 8 8 9 9 8 8 8 8 9 9
6 5 5 5 5 5 5 6 7 9 11 13 13 12 11 10 9 8 7 6 5 5 5 5 5 5 5 6 6 7 7 6 6 7 7 7 7 5 3 2 2 1 2 5 7 8 9 9 9 8 7 5 5 5 6 7 7 7 7 8 8 9 9 9 9 9 9 9 9
5 5 5 5 5 5 6 6 7 8 10 10 10 9 8 7 7 6 5 4 4 4 4 5 5 5 5 6 6 7 6 6 6 6 6 6 6 5 4 2 1 0 2 4 6 7 7 8 8 8 7 7 7 6 6 5 5 5 6 6 7 8 9 9 9 9 9 10 10
5 5 4 4 5 5 5 5 5 5 6 6 6 6 6 6 6 5 5 4 3 4 4 5 5 6 6 6 6 6 5 5 5 5 5 5 6 6 5 3 3 2 1 3 5 6 6 7 9 10 11 12 13 12 10 9 7 6 5 5 6 6 7 7 7 8 8 9 10
5 4 4 4 4 4 4 4 3 2 2 3 4 5 6 6 6 5 4 4 4 4 5 6 6 6 6 5 5 5 5 5 5 5 6 6 7 7 5 4 5 4 2 2 4 5 5 7 8 10 12 14 15 14 13 10 9 8 7 6 6 6 6 6 7 7 8 9 9
4 4 4 5 5 5 5 4 3 2 1 2 4 5 6 6 5 5 4 3 4 6 7 7 7 7 5 4 4 5 5 5 6 7 8 9 9 9 7 5 6 5 3 1 3 4 4 5 7 9 11 13 14 14 13 11 9 9 8 8 8 7 7 7 7 8 9 10 10
4 4 4 5 5 5 5 5 5 4 2 3 4 5 5 5 4 3 3 4 5 6 8 8 9 7 6 5 5 5 6 6 7 9 10 11 11 10 10 9 8 6 4 2 3 3 3 3 4 6 8 9 11 12 12 11 11 10 10 10 10 10 10 10 10 10 11 11 12
4 3 4 4 5 5 6 6 6 5 4 3 4 4 4 3 3 3 4 5 6 7 8 8 8 7 6 6 6 7 7 7 7 8 9 10 9 9 10 10 9 8 6 4 4 4 4 4 3 4 5 6 8 9 10 11 12 12 13 13 12 12 12 12 13 13 13 13 13
4 3 3 4 5 6 7 7 6 6 5 4 3 3 3 2 3 4 5 5 6 7 7 7 7 6 5 6 7 8 8 8 8 8 8 6 5 4 5 6 7 8 9 7 6 6 6 6 5 5 5 6 7 9 10 12 13 14 15 15 15 14 14 14 13 14 14 13 13
5 4 4 4 5 7 7 7 7 7 6 4 3 1 2 3 3 4 5 6 6 6 6 6 6 6 6 6 6 6 7 7 7 7 7 7 6 5 5 4 1 3 6 7 7 8 8 8 8 8 8 8 9 10 11 13 14 16 17 17 17 17 15 14 14 13 13 13 13
6 5 5 5 6 7 7 8 7 7 6 4 2 1 2 4 4 4 5 5 6 6 6 6 6 6 6 5 5 5 5 6 6 6 6 7 7 6 6 6 5 3 1 3 6 8 9 10 11 11 11 11 11 12 13 15 16 17 18 19 19 18 17 15 14 13 13 13 13
7 7 6 6 6 7 8 8 7 6 5 3 2 2 3 4 3 4 4 5 5 5 5 6 6 6 6 5 5 6 6 7 7 7 7 7 7 7 6 6 6 6 5 4 5 7 9 11 12 13 14 14 14 15 15 16 17 17 18 18 18 18 17 16 15 14 14 14 14
8 7 7 6 6 7 8 8 7 6 4 2 2 2 2 2 2 3 4 4 4 3 3 4 4 5 5 4 4 5 6 6 7 7 7 7 7 7 7 7 7 8 8 7 6 6 7 10 12 14 15 15 15 16 16 16 16 16 16 16 16 16 16 16 15 15 14 14 15
7 6 5 5 6 7 7 7 7 5 4 3 3 2 2 1 2 3 4 4 3 3 3 2 3 3 3 2 2 3 4 4 4 5 5 5 6 6 7 8 9 9 10 10 9 7 6 8 10 13 14 14 15 16 16 15 14 13 13 13 13 14 14 14 14 14 14 14 14
5 4 4 5 6 7 7 7 6 5 4 4 3 3 2 1 2 4 5 5 4 3 2 2 2 1 1 1 1 2 2 3 3 3 3 4 5 5 7 8 9 10 10 10 10 9 7 7 9 11 13 14 15 15 15 13 12 11 10 10 10 10 10 10 10 10 11 12 12
3 4 5 6 7 7 6 6 5 4 4 4 4 4 3 0 4 6 6 7 6 5 3 2 2 1 0 1 2 3 4 4 4 4 4 4 4 5 6 8 9 10 10 10 11 10 9 8 9 11 12 14 14 14 13 12 10 9 8 8 7 6 6 6 6 6 7 8 8
6 7 7 7 6 6 6 6 5 4 4 4 4 4 4 1 2 5 7 7 7 5 4 3 2 1 1 3 4 5 6 6 6 6 6 5 6 6 7 8 9 10 10 11 11 10 9 8 9 10 12 12 12 12 11 10 8 7 6 6 5 4 4 4 4 3 3 4 4
8 8 8 7 7 6 6 6 5 4 3 3 4 5 4 3 1 3 4 4 4 3 2 1 1 1 2 4 5 6 7 7 7 7 7 7 7 7 8 9 10 11 11 11 10 9 7 6 7 8 10 10 10 10 9 9 7 6 6 6 5 4 4 4 3 3 2 2 2
Wind_Direction
263 266 268 268 266 262 256 251 249 248 245 243 241 240 239 239 238 238 239 240 241 242 244 245 247 249 251 253 255 257 258 260 261 262 263 264 264 265 265 265 264 263 262 261 260 259 258 258 258 258 258 259 260 260 261 261 261 261 260 260 260 260 259 259 259 259 259 259 259
260 263 264 264 260 253 246 243 244 244 243 241 240 239 238 238 238 238 239 240 241 244 246 248 250 252 254 256 258 260 261 262 263 263 264 264 264 264 264 264 264 263 262 261 260 259 258 258 258 258 259 259 260 261 261 261 261 260 260 260 260 259 259 259 260 260 260 260 260
260 259 256 253 247 241 237 238 239 239 239 239 239 239 238 238 239 240 241 242 244 246 249 250 252 255 257 260 262 263 264 264 265 265 265 265 265 265 264 264 263 263 262 261 260 259 259 259 259 259 260 260 261 262 262 262 262 261 261 260 260 259 259 259 259 260 260 260 259
258 256 252 250 247 243 242 241 241 240 239 239 240 241 240 240 241 243 244 246 248 249 251 253 255 257 259 262 264 265 266 266 266 266 265 265 265 265 265 264 264 263 263 261 261 260 260 260 260 260 260 261 261 262 263 263 263 263 262 261 261 260 259 259 259 259 259 260 260
256 256 256 256 255 253 250 248 245 242 241 241 242 243 243 243 245 247 249 251 253 253 254 255 257 259 260 263 265 266 267 268 268 267 267 267 266 267 266 266 265 264 264 263 262 262 261 261 261 260 260 261 261 262 262 263 264 264 264 263 263 262 261 260 259 259 259 259 260
254 255 255 254 252 251 251 251 247 243 241 240 241 243 244 246 249 251 253 256 257 257 257 257 258 260 261 263 265 266 267 268 268 269 269 269 269 269 269 268 268 267 267 266 266 265 264 264 263 263 262 262 262 263 263 264 265 265 265 265 264 263 263 262 261 260 259 259 259
254 255 253 251 248 247 247 248 247 245 241 239 240 243 246 249 251 254 256 257 258 258 258 258 259 260 262 264 266 267 269 269 271 271 272 272 272 272 272 271 271 271 270 270 269 269 268 267 267 266 266 266 265 265 265 266 266 266 266 266 266 265 264 264 263 261 260 259 258
256 255 253 248 245 243 243 244 244 244 243 241 241 243 245 248 251 253 255 256 257 258 258 259 260 262 264 266 268 270 272 273 274 275 275 275 275 274 273 273 272 272 271 271 270 270 270 269 269 269 269 268 268 268 268 268 267 267 267 267 267 267 266 265 264 263 261 258 257
255 252 250 246 243 241 240 240 240 241 242 242 242 242 242 244 246 249 251 253 255 257 258 260 262 265 268 271 274 276 278 279 279 279 279 278 277 276 274 273 272 271 271 270 269 269 269 269 269 269 269 268 268 268 268 268 267 267 266 267 267 267 267 266 265 264 262 258 256
253 248 246 244 242 240 239 237 237 238 239 241 241 240 239 239 241 244 247 251 254 257 259 262 266 270 274 277 280 283 284 285 285 284 283 281 279 277 275 273 272 271 270 269 268 267 267 266 266 266 266 266 266 265 265 265 264 264 264 265 265 265 265 265 265 263 261 259 256
253 248 244 241 240 239 238 237 236 236 237 239 238 236 234 233 236 240 245 250 254 258 262 266 270 274 279 283 288 291 293 294 293 290 287 284 281 279 276 275 273 272 271 269 268 267 266 265 264 264 263 263 263 262 262 262 261 261 261 262 262 262 262 262 261 261 259 257 255
252 248 244 240 238 236 236 236 235 235 236 235 233 230 229 230 232 237 242 250 257 262 266 270 274 278 285 294 300 304 305 304 302 298 293 287 283 280 278 276 275 273 272 271 269 268 267 266 265 263 262 261 261 261 261 260 259 259 259 259 259 259 259 258 258 257 256 255 254
248 246 244 242 238 235 233 233 234 234 233 230 228 227 227 228 231 235 242 250 259 265 269 272 278 288 300 308 310 311 310 309 307 304 298 291 286 283 281 279 277 275 274 272 271 270 269 268 267 265 263 261 260 260 260 259 259 258 257 257 257 257 257 257 256 255 255 254 253
246 244 243 243 240 235 230 228 228 228 228 227 226 227 227 228 231 235 241 249 258 263 269 276 287 298 306 309 309 309 309 308 308 306 302 296 292 289 286 285 282 279 276 275 273 272 272 271 269 267 265 263 261 260 259 260 259 259 258 257 257 256 256 256 256 255 255 254 254
246 244 242 241 238 233 227 223 222 223 225 226 228 230 230 231 232 235 238 243 251 258 267 278 290 297 301 303 304 305 305 306 305 305 302 299 296 294 293 292 288 285 282 281 279 278 277 276 273 271 270 267 265 263 261 261 261 260 259 257 257 257 257 257 257 256 256 256 256
247 242 239 236 233 229 225 222 221 223 226 229 232 233 232 231 232 234 237 239 245 253 264 276 286 293 297 299 301 302 303 302 301 300 299 298 297 297 297 296 295 297 301 305 305 299 290 284 284 284 284 280 274 269 265 262 261 259 258 256 256 256 257 258 258 258 258 258 257
247 239 233 230 229 228 228 227 227 229 231 232 232 231 230 230 231 233 234 236 240 249 262 275 285 292 296 299 300 300 299 297 296 295 294 295 296 297 297 298 305 313 325 343 341 260 255 268 285 294 295 291 285 279 274 269 264 261 258 256 256 256 257 257 257 257 258 258 258
244 238 234 231 230 231 232 233 233 234 233 231 229 227 227 228 228 228 228 230 236 246 261 276 286 292 295 296 296 295 292 290 290 290 290 291 292 293 296 304 313 318 301 199 202 219 241 266 285 295 297 293 290 289 287 283 277 269 263 259 257 256 256 256 255 254 254 255 255
241 239 238 237 234 233 233 234 235 234 231 229 226 223 222 222 222 222 223 228 236 249 264 279 287 290 291 291 289 287 284 283 284 285 284 282 284 288 295 303 305 271 229 218 224 242 261 276 284 288 289 286 291 296 297 295 292 282 270 261 257 256 256 256 254 252 249 247 247
240 238 238 237 235 233 232 232 232 230 227 224 221 217 216 217 218 221 225 232 243 255 269 280 284 286 285 283 280 279 279 281 283 281 272 263 266 274 285 296 297 273 249 242 247 259 270 277 276 269 256 263 284 293 295 295 293 288 281 273 268 268 268 268 263 257 251 248 247
239 235 233 231 230 229 228 228 226 223 218 215 212 212 213 216 221 226 232 240 250 261 271 277 278 278 276 275 275 275 277 281 282 276 251 235 244 257 270 279 280 270 260 254 256 263 270 275 269 266 269 275 278 281 283 284 285 286 288 291 293 296 296 290 276 264 258 255 253
237 232 227 223 221 221 220 219 215 211 206 205 206 209 214 220 227 233 240 247 254 262 268 269 268 267 267 268 271 273 275 276 274 266 245 230 240 255 268 274 268 261 261 265 270 278 288 293 293 291 287 282 276 271 267 265 264 268 276 286 294 296 290 280 268 261 256 253 250
232 227 222 216 213 210 208 205 201 198 198 201 205 211 218 225 232 237 243 248 253 256 258 257 257 257 258 260 262 263 264 263 261 252 240 234 243 259 275 281 266 256 253 257 265 277 290 297 298 295 288 278 268 260 254 248 245 247 256 267 272 269 262 257 254 254 254 252 249
228 225 221 217 211 207 203 199 197 198 201 204 210 216 222 228 231 235 239 242 243 244 245 247 249 250 251 251 252 253 252 250 242 229 224 230 241 252 264 258 232 234 242 248 256 270 282 289 287 280 270 260 252 246 242 239 238 242 249 258 263 261 255 250 249 250 253 253 250
241 242 241 237 232 228 225 221 218 213 211 212 215 219 221 223 224 226 226 225 226 230 237 240 239 238 240 246 250 251 247 239 222 213 216 227 237 235 211 155 142 159 246 260 264 269 273 272 267 260 252 247 247 246 243 239 239 243 251 258 262 262 261 259 257 257 257 256 252
261 257 251 248 246 246 244 241 236 227 220 216 215 213 211 208 206 202 198 195 201 214 225 228 224 223 232 244 250 248 241 227 213 210 216 225 226 209 183 137 137 168 292 286 283 278 269 260 259 265 276 287 294 297 296 289 273 262 259 262 265 267 270 271 271 271 270 268 266
273 265 260 262 263 264 264 262 251 234 218 207 198 190 183 178 173 167 164 166 182 200 209 212 216 224 235 241 239 231 222 217 216 213 211 212 201 184 161 108 79 60 346 304 296 286 270 258 263 275 287 295 299 301 303 303 302 295 286 279 276 278 280 283 286 286 285 283 282
289 284 285 289 294 298 301 300 290 263 202 171 159 152 149 147 144 142 145 158 184 198 202 202 210 222 232 234 224 212 209 216 222 219 210 205 196 180 149 101 79 73 58 319 300 291 276 260 261 268 277 285 293 298 302 303 304 303 303 301 299 297 295 295 296 297 297 297 296
298 294 297 303 312 320 327 331 333 341 50 113 121 123 123 123 123 128 144 176 196 200 199 200 209 216 221 215 202 195 198 209 212 208 201 196 192 182 162 128 95 85 80 357 310 303 288 265 257 258 264 272 282 292 301 308 311 313 314 315 316 314 311 306 303 301 300 300 300
303 299 302 309 319 328 337 343 348 357 25 71 93 101 103 106 114 135 170 197 203 200 201 208 213 215 209 197 190 189 194 200 196 185 176 170 164 155 144 130 106 87 70 32 342 329 317 289 264 259 263 270 279 289 300 310 319 324 326 325 324 322 318 314 310 306 302 300 298
317 311 312 319 324 332 340 347 354 3 22 49 73 85 93 105 136 170 192 203 203 199 200 208 213 210 202 195 194 195 198 202 199 186 172 161 149 139 133 126 107 84 63 40 10 353 343 328 303 284 279 282 286 292 298 306 314 321 324 325 324 321 317 313 309 305 302 299 296
336 331 329 329 331 335 343 351 0 10 21 34 55 76 99 136 174 192 204 211 209 202 197 198 199 198 195 195 197 196 197 202 207 209 206 200 191 173 150 129 105 81 63 47 25 6 354 342 328 310 298 292 292 292 295 299 304 308 312 314 315 314 311 307 303 300 298 296 293
350 350 347 342 339 342 349 0 12 21 23 23 35 83 141 174 194 207 215 219 213 205 196 190 188 187 186 188 190 193 196 201 210 221 232 241 248 252 253 248 214 85 66 52 28 10 357 345 332 320 307 299 295 294 295 296 298 300 301 303 303 303 302 300 297 293 290 288 287
360 3 5 1 354 354 0 12 25 30 25 13 2 200 188 193 202 212 217 215 211 206 201 197 193 190 191 194 204 216 226 230 234 242 253 263 270 277 281 282 279 272 292 25 16 3 351 341 332 324 316 309 304 301 300 300 300 299 298 296 295 293 292 290 288 285 283 280 279
6 15 21 18 8 4 10 21 32 33 25 4 334 260 218 208 208 207 207 206 203 203 204 205 201 200 203 213 227 239 248 258 260 265 272 277 281 285 290 295 302 301 300 317 343 350 346 337 330 325 321 317 313 311 309 308 305 302 299 296 293 290 287 284 282 280 277 275 272
14 24 29 25 11 5 10 21 28 27 17 359 343 305 256 228 203 192 193 196 193 190 192 200 205 210 217 230 243 254 262 268 270 272 275 279 281 285 289 292 302 308 312 317 326 337 341 336 328 324 322 322 320 318 316 314 311 307 303 300 297 293 290 286 283 280 276 273 270
24 27 25 15 3 2 10 20 23 20 11 2 356 346 328 272 172 176 188 197 192 184 178 181 195 207 221 237 254 270 278 279 275 273 275 279 283 288 292 294 297 300 305 309 313 320 331 332 321 318 319 321 321 320 319 318 316 314 311 309 305 301 297 293 289 284 280 275 272
35 29 12 357 354 0 12 21 20 16 12 14 16 19 26 92 175 185 191 195 191 184 179 173 170 176 192 241 281 301 310 316 309 297 289 288 291 294 296 296 296 296 298 301 304 307 314 318 308 308 312 316 318 319 321 323 323 323 320 318 315 313 309 304 298 291 285 280 276
4 359 354 350 352 0 13 21 21 16 14 21 31 36 39 137 193 193 190 185 181 176 169 159 146 134 59 337 328 325 326 331 333 328 318 307 301 300 299 298 299 299 299 300 302 303 305 307 304 303 306 312 317 322 326 330 333 332 329 328 329 331 330 325 317 305 296 288 282
340 343 347 352 357 5 12 17 17 17 18 22 28 32 31 26 180 180 177 176 173 170 164 155 149 142 319 322 320 319 318 319 321 323 320 315 308 306 305 306 308 308 307 306 305 305 304 305 302 302 306 314 321 328 333 338 340 340 338 340 347 354 357 354 350 339 323 307 294
349 353 358 2 4 6 9 10 10 12 19 25 25 24 23 21 101 147 153 159 164 164 166 176 217 297 311 313 311 308 306 305 307 309 308 307 306 308 312 315 318 319 317 315 311 307 305 307 307 310 315 321 326 333 339 342 344 342 342 348 360 9 13 12 12 10 0 342 315
Height
1449 1448 1448 1448 1448 1448 1448 1447 1447 1446 1446 1446 1446 1446 1446 1447 1447 1446 1447 1447 1447 1447 1447 1447 1447 1447 1447 1447 1447 1447 1447 1447 1447 1447 1447 1447 1446 1446 1446 1446 1447 1447 1447 1447 1447 1447 1447 1447 1447 1447 1447 1446 1446 1446 1446 1446 1446 1446 1446 1446 1446 1446 1447 1447 1447 1447 1448 1448 1448
1447 1447 1446 1445 1445 1445 1445 1445 1445 1445 1445 1445 1445 1445 1445 1445 1445 1445 1445 1445 1446 1446 1446 1446 1446 1446 1446 1446 1446 1446 1445 1445 1445 1445 1445 1445 1445 1445 1445 1445 1445 1445 1445 1445 1445 1445 1445 1445 1445 1445 1445 1445 1445 1445 1444 1444 1444 1444 1444 1444 1444 1444 1445 1445 1445 1445 1446 1446 1446
1445 1444 1444 1443 1443 1443 1443 1443 1443 1443 1443 1443 1444 1444 1444 1444 1444 1444 1444 1444 1444 1444 1444 1444 1444 1444 1444 1444 1444 1444 1444 1444 1444 1444 1444 1444 1444 1444 1444 1444 1444 1444 1444 1444 1444 1444 1444 1443 1443 1443 1443 1443 1443 1443 1443 1443 1443 1443 1443 1443 1443 1443 1443 1443 1443 1444 1444 1444 1444
1444 1444 1443 1443 1442 1442 1442 1442 1442 1442 1442 1442 1442 1442 1443 1443 1443 1443 1443 1443 1443 1443 1443 1443 1443 1443 1443 1443 1443 1443 1443 1443 1443 1443 1443 1443 1442 1442 1442 1442 1442 1442 1442 1442 1442 1442 1442 1442 1442 1442 1442 1442 1442 1441 1441 1441 1441 1441 1441 1441 1441 1441 1441 1441 1441 1442 1442 1442 1442
1442 1442 1442 1442 1442 1442 1441 1441 1441 1441 1440 1441 1441 1441 1441 1441 1442 1442 1442 1442 1441 1441 1442 1442 1442 1441 1441 1441 1441 1441 1441 1441 1441 1441 1441 1441 1441 1441 1441 1440 1440 1440 1440 1440 1440 1440 1440 1440 1440 1440 1440 1440 1440 1440 1439 1439 1439 1439 1439 1439 1439 1439 1439 1439 1439 1439 1440 1440 1440
1438 1439 1440 1441 1441 1441 1440 1440 1440 1439 1439 1439 1439 1440 1440 1440 1440 1440 1440 1440 1440 1440 1440 1440 1440 1440 1440 1440 1440 1440 1440 1440 1440 1440 1440 1440 1439 1439 1439 1439 1439 1439 1439 1439 1438 1438 1438 1438 1438 1438 1438 1438 1438 1438 1438 1438 1438 1437 1437 1437 1437 1437 1437 1437 1437 1438 1438 1438 1439
1435 1436 1438 1439 1439 1439 1439 1439 1439 1438 1438 1438 1438 1438 1438 1439 1439 1439 1439 1439 1439 1439 1439 1439 1439 1438 1438 1438 1438 1438 1438 1438 1439 1438 1438 1438 1438 1438 1437 1437 1437 1437 1436 1436 1436 1436 1436 1436 1435 1435 1435 1436 1436 1436 1436 1436 1436 1436 1435 1435 1435 1435 1435 1435 1436 1436 1436 1436 1437
1433 1434 1435 1437 1437 1437 1436 1436 1437 1437 1437 1436 1436 1436 1437 1437 1437 1437 1437 1437 1437 1437 1437 1437 1437 1437 1437 1437 1437 1437 1437 1437 1437 1437 1436 1436 1436 1436 1435 1435 1435 1434 1434 1434 1434 1434 1433 1433 1433 1433 1433 1433 1433 1434 1434 1434 1434 1434 1434 1434 1434 1433 1434 1434 1434 1434 1434 1435 1435
1430 1431 1433 1434 1434 1434 1434 1434 1434 1435 1435 1434 1434 1434 1435 1435 1435 1435 1435 1435 1435 1435 1435 1435 1435 1435 1435 1435 1435 1435 1435 1435 1435 1435 1434 1434 1434 1434 1433 1433 1432 1432 1432 1431 1431 1431 1430 1430 1430 1430 1430 1431 1431 1431 1431 1431 1431 1431 1431 1432 1432 1432 1432 1432 1432 1433 1433 1433 1434
1427 1428 1430 1431 1431 1431 1431 1431 1432 1432 1432 1432 1432 1432 1432 1433 1433 1433 1433 1433 1433 1434 1434 1433 1433 1433 1433 1433 1433 1433 1433 1433 1433 1433 1433 1432 1432 1431 1431 1430 1430 1429 1429 1429 1428 1428 1428 1428 1428 1428 1428 1428 1428 1428 1429 1429 1429 1429 1429 1429 1429 1430 1430 1430 1430 1431 1431 1431 1432
1424 1425 1426 1428 1428 1428 1428 1428 1429 1429 1429 1429 1429 1429 1430 1430 1430 1430 1431 1431 1431 1431 1431 1431 1431 1431 1431 1431 1432 1432 1432 1431 1431 1431 1430 1430 1429 1429 1429 1428 1427 1427 1426 1426 1426 1425 1425 1425 1425 1425 1425 1425 1425 1425 1426 1426 1426 1426 1427 1427 1427 1428 1428 1428 1429 1429 1429 1429 1430
1420 1422 1423 1424 1425 1425 1425 1425 1425 1426 1427 1427 1427 1427 1427 1427 1427 1428 1428 1429 1429 1429 1429 1429 1429 1429 1429 1429 1429 1429 1429 1429 1429 1429 1429 1428 1427 1427 1426 1425 1425 1424 1424 1424 1423 1423 1423 1423 1423 1423 1423 1423 1423 1423 1423 1423 1424 1424 1424 1424 1425 1425 1425 1426 1427 1427 1427 1428 1428
1417 1418 1420 1422 1422 1422 1422 1423 1423 1424 1424 1425 1425 1425 1425 1425 1425 1425 1426 1426 1427 1427 1427 1427 1428 1428 1427 1427 1427 1427 1427 1427 1427 1426 1426 1426 1425 1424 1424 1423 1423 1422 1422 1421 1421 1421 1421 1420 1420 1420 1420 1420 1421 1421 1421 1421 1421 1421 1422 1422 1422 1423 1423 1424 1424 1425 1425 1425 1425
1413 1415 1417 1419 1420 1420 1420 1420 1421 1422 1423 1423 1423 1423 1423 1423 1423 1423 1424 1424 1424 1425 1425 1425 1425 1425 1425 1425 1425 1425 1425 1425 1425 1424 1424 1423 1423 1422 1422 1421 1421 1420 1419 1419 1419 1419 1419 1419 1418 1418 1418 1419 1419 1419 1419 1419 1419 1419 1419 1420 1420 1420 1421 1421 1422 1422 1422 1423 1423
1411 1413 1414 1417 1418 1419 1418 1418 1419 1420 1421 1421 1421 1421 1421 1421 1421 1421 1421 1422 1422 1422 1422 1422 1423 1423 1423 1423 1424 1424 1424 1423 1423 1423 1422 1421 1421 1421 1420 1420 1419 1419 1418 1417 1417 1417 1417 1417 1417 1417 1417 1417 1417 1417 1417 1417 1417 1417 1418 1418 1418 1418 1419 1419 1419 1420 1420 1421 1421
1409 1410 1412 1414 1416 1416 1416 1416 1417 1418 1419 1419 1419 1419 1419 1419 1419 1419 1419 1419 1419 1419 1420 1420 1420 1421 1421 1422 1422 1422 1422 1422 1422 1421 1420 1420 1419 1419 1419 1419 1418 1418 1417 1416 1416 1416 1416 1416 1416 1416 1416 1416 1416 1416 1415 1415 1416 1416 1416 1416 1416 1417 1417 1417 1418 1418 1419 1419 1419
1409 1409 1411 1413 1413 1414 1414 1414 1415 1416 1417 1417 1417 1417 1417 1417 1417 1417 1417 1417 1417 1417 1418 1418 1419 1420 1420 1421 1421 1421 1421 1421 1420 1420 1419 1419 1418 1418 1418 1417 1417 1416 1416 1415 1416 1416 1415 1415 1415 1415 1415 1415 1415 1415 1415 1414 1414 1414 1415 1415 1415 1415 1416 1416 1416 1417 1417 1418 1418
1409 1409 1409 1410 1411 1412 1412 1413 1414 1414 1415 1415 1415 1415 1415 1415 1415 1414 1414 1414 1414 1415 1416 1417 1418 1419 1419 1419 1419 1419 1419 1419 1419 1419 1418 1418 1417 1417 1417 1416 1416 1415 1415 1415 1415 1414 1414 1414 1415 1415 1415 1415 1415 1414 1414 1414 1414 1414 1414 1414 1414 1414 1414 1414 1415 1415 1416 1416 1417
1409 1409 1408 1408 1408 1409 1410 1411 1412 1413 1413 1413 1413 1413 1413 1412 1412 1412 1412 1412 1413 1414 1415 1416 1417 1418 1418 1418 1418 1418 1418 1418 1418 1418 1417 1416 1416 1416 1415 1415 1415 1415 1414 1414 1414 1413 1413 1414 1414 1414 1414 1414 1414 1414 1414 1414 1413 1413 1413 1413 1413 1413 1413 1414 1414 1414 1414 1414 1415
1408 1408 1407 1406 1406 1407 1408 1409 1410 1411 1411 1411 1411 1411 1410 1410 1410 1410 1410 1411 1411 1413 1414 1415 1416 1416 1417 1417 1417 1417 1417 1417 1417 1417 1416 1415 1415 1414 1414 1414 1414 1414 1414 1413 1413 1413 1413 1413 1413 1414 1414 1414 1414 1413 1413 1413 1413 1412 1412 1412 1412 1413 1413 1413 1413 1413 1413 1413 1413
1406 1406 1406 1405 1405 1405 1406 1407 1408 1409 1409 1409 1409 1409 1409 1409 1409 1409 1409 1410 1411 1412 1413 1414 1415 1415 1415 1416 1416 1416 1416 1416 1416 1416 1415 1415 1414 1414 1414 1414 1413 1413 1413 1412 1412 1412 1412 1412 1413 1413 1413 1413 1413 1413 1413 1413 1412 1412 1412 1412 1412 1412 1412 1412 1412 1412 1412 1412 1412
1405 1405 1405 1405 1405 1405 1405 1406 1406 1406 1406 1406 1406 1407 1407 1407 1407 1408 1408 1409 1410 1411 1412 1413 1414 1414 1414 1415 1415 1415 1415 1415 1415 1414 1414 1414 1413 1413 1413 1413 1413 1412 1412 1412 1411 1411 1411 1412 1412 1412 1413 1413 1412 1412 1412 1412 1412 1412 1412 1412 1412 1412 1412 1412 1412 1412 1412 1412 1412
1405 1405 1405 1405 1405 1405 1405 1405 1405 1405 1405 1404 1404 1405 1405 1406 1406 1406 1407 1408 1409 1410 1411 1412 1413 1413 1414 1414 1414 1414 1414 1414 1414 1413 1413 1413 1413 1413 1413 1412 1412 1411 1411 1411 1411 1411 1411 1411 1411 1412 1412 1412 1412 1412 1412 1412 1412 1412 1412 1412 1412 1412 1412 1412 1412 1412 1412 1411 1411
1406 1406 1406 1406 1406 1406 1406 1405 1405 1404 1403 1403 1403 1403 1404 1404 1404 1405 1405 1406 1408 1409 1410 1411 1412 1413 1413 1413 1413 1414 1414 1413 1413 1413 1413 1412 1412 1412 1412 1412 1411 1410 1410 1410 1410 1410 1411 1411 1411 1411 1411 1411 1411 1411 1411 1411 1411 1411 1411 1411 1412 1412 1412 1411 1411 1411 1411 1411 1411
1406 1407 1407 1407 1407 1407 1406 1406 1405 1404 1403 1402 1402 1402 1403 1403 1403 1404 1404 1406 1407 1409 1410 1411 1411 1412 1412 1412 1412 1412 1413 1413 1413 1412 1412 1412 1412 1412 1412 1411 1411 1410 1409 1409 1410 1410 1411 1411 1411 1411 1411 1411 1411 1411 1411 1411 1411 1411 1411 1411 1411 1411 1411 1411 1411 1411 1411 1411 1410
1407 1407 1407 1407 1407 1407 1407 1406 1405 1404 1402 1401 1401 1401 1401 1402 1402 1403 1404 1405 1407 1408 1409 1410 1411 1411 1411 1411 1412 1412 1412 1412 1412 1412 1412 1412 1412 1412 1411 1411 1410 1409 1409 1409 1409 1409 1410 1411 1411 1410 1410 1410 1411 1411 1411 1411 1410 1410 1410 1410 1410 1410 1410 1410 1410 1410 1410 1410 1410
1407 1407 1407 1408 1408 1408 1407 1406 1405 1403 1402 1401 1400 1400 1400 1401 1401 1402 1404 1405 1407 1408 1409 1410 1410 1410 1410 1411 1411 1411 1411 1411 1411 1411 1411 1411 1411 1411 1411 1410 1410 1409 1409 1408 1409 1409 1410 1410 1410 1410 1410 1410 1410 1410 1410 1410 1410 1410 1410 1410 1410 1410 1410 1410 1410 1409 1409 1409 1409
1408 1408 1408 1408 1408 1408 1407 1406 1405 1404 1402 1401 1400 1400 1400 1400 1401 1402 1404 1405 1407 1408 1409 1410 1410 1410 1410 1410 1411 1411 1411 1411 1411 1411 1411 1411 1411 1411 1411 1411 1410 1409 1409 1408 1408 1409 1409 1410 1410 1410 1410 1410 1409 1409 1409 1410 1410 1410 1410 1410 1410 1410 1410 1409 1409 1409 1409 1409 1409
1408 1408 1408 1408 1408 1408 1407 1407 1405 1404 1403 1402 1401 1400 1400 1401 1401 1403 1404 1405 1407 1408 1409 1409 1410 1410 1410 1410 1411 1411 1411 1411 1411 1411 1411 1411 1411 1411 1410 1410 1410 1409 1409 1408 1408 1408 1409 1409 1409 1409 1409 1409 1409 1409 1409 1409 1409 1409 1409 1409 1409 1409 1409 1409 1409 1409 1409 1409 1408
1409 1408 1408 1408 1408 1408 1407 1407 1406 1405 1404 1402 1401 1401 1401 1401 1402 1404 1405 1406 1407 1408 1409 1409 1409 1409 1410 1410 1410 1411 1411 1411 1411 1411 1410 1410 1410 1410 1409 1409 1409 1409 1409 1408 1408 1408 1409 1409 1409 1409 1409 1409 1409 1409 1408 1408 1408 1408 1408 1408 1408 1408 1408 1408 1408 1408 1408 1408 1408
1409 1409 1408 1408 1408 1407 1407 1406 1406 1405 1404 1403 1402 1402 1402 1403 1404 1404 1405 1406 1407 1408 1409 1409 1409 1409 1410 1410 1410 1410 1411 1411 1411 1411 1410 1410 1410 1409 1409 1409 1409 1409 1409 1409 1408 1408 1408 1408 1409 1409 1409 1409 1408 1408 1408 1408 1408 1407 1407 1407 1407 1407 1407 1407 1407 1407 1407 1407 1407
1409 1409 1409 1408 1408 1407 1407 1406 1405 1404 1404 1403 1403 1403 1403 1404 1405 1405 1406 1407 1407 1408 1408 1409 1409 1409 1410 1410 1410 1410 1410 1410 1410 1410 1410 1410 1410 1409 1409 1409 1409 1409 1409 1409 1408 1408 1408 1408 1408 1408 1408 1408 1408 1408 1408 1408 1407 1407 1407 1407 1407 1406 1406 1406 1406 1406 1406 1406 1406
1409 1409 1409 1408 1408 1407 1407 1406 1405 1405 1404 1404 1404 1404 1404 1405 1406 1406 1407 1407 1408 1408 1409 1409 1409 1409 1409 1410 1410 1410 1410 1410 1410 1410 1410 1409 1409 1409 1409 1409 1409 1409 1409 1409 1408 1407 1407 1407 1407 1407 1408 1408 1408 1408 1408 1407 1407 1407 1406 1406 1406 1406 1405 1405 1405 1405 1405 1405 1405
1409 1409 1409 1408 1408 1407 1407 1406 1406 1405 1405 1405 1405 1405 1405 1406 1407 1407 1408 1408 1408 1409 1409 1409 1409 1409 1409 1409 1409 1409 1409 1409 1409 1409 1409 1409 1409 1409 1409 1409 1409 1408 1408 1408 1408 1408 1407 1406 1406 1406 1406 1407 1407 1407 1407 1407 1407 1406 1406 1405 1405 1405 1404 1404 1404 1404 1404 1404 1404
1409 1409 1409 1409 1408 1408 1407 1407 1407 1407 1406 1406 1406 1406 1406 1407 1408 1408 1408 1408 1409 1409 1409 1409 1409 1409 1409 1409 1409 1409 1409 1409 1409 1409 1409 1409 1409 1409 1408 1408 1408 1408 1408 1408 1408 1408 1407 1406 1405 1405 1405 1405 1406 1406 1406 1406 1406 1405 1405 1404 1404 1403 1403 1403 1403 1403 1403 1403 1403
1410 1410 1409 1409 1409 1408 1408 1408 1408 1408 1407 1407 1407 1407 1407 1407 1408 1408 1409 1409 1409 1409 1409 1409 1409 1409 1409 1409 1409 1409 1409 1409 1409 1409 1409 1409 1409 1408 1408 1408 1408 1408 1407 1408 1408 1408 1407 1406 1405 1404 1404 1404 1404 1405 1405 1405 1405 1404 1404 1403 1403 1402 1402 1402 1401 1401 1402 1402 1402
1411 1410 1410 1410 1409 1409 1409 1409 1409 1409 1408 1408 1408 1408 1408 1408 1409 1409 1409 1409 1409 1409 1409 1409 1409 1409 1409 1409 1409 1409 1409 1409 1409 1409 1409 1409 1408 1408 1408 1408 1407 1407 1407 1407 1407 1407 1407 1407 1405 1404 1404 1403 1404 1404 1404 1404 1404 1404 1403 1402 1402 1401 1400 1400 1400 1400 1400 1400 1400
1412 1411 1411 1410 1410 1410 1410 1410 1410 1409 1409 1409 1409 1409 1409 1409 1409 1409 1409 1409 1409 1409 1409 1409 1409 1409 1409 1409 1409 1409 1409 1409 1409 1409 1409 1408 1408 1408 1408 1407 1407 1407 1406 1406 1406 1406 1406 1406 1405 1404 1404 1403 1403 1403 1404 1404 1403 1403 1402 1402 1401 1400 1400 1399 1399 1399 1399 1398 1399
1412 1412 1411 1411 1411 1411 1411 1411 1410 1410 1410 1410 1410 1409 1409 1409 1409 1409 1409 1409 1409 1409 1409 1409 1409 1409 1409 1409 1409 1409 1409 1409 1409 1409 1408 1408 1408 1408 1407 1407 1407 1406 1406 1406 1406 1405 1405 1405 1405 1404 1403 1403 1403 1403 1403 1403 1403 1402 1402 1401 1401 1400 1399 1399 1399 1398 1398 1397 1397
1413 1413 1412 1412 1412 1412 1411 1411 1411 1411 1411 1410 1410 1410 1410 1409 1409 1409 1409 1408 1408 1409 1409 1409 1409 1409 1409 1409 1409 1409 1409 1409 1409 1408 1408 1408 1407 1407 1407 1407 1406 1406 1405 1405 1405 1405 1404 1404 1404 1403 1403 1403 1403 1403 1403 1402 1402 1402 1401 1401 1400 1400 1399 1399 1398 1398 1397 1397 1397
1413 1413 1413 1412 1412 1412 1412 1412 1412 1412 1411 1411 1411 1411 1410 1410 1409 1409 1409 1409 1409 1409 1409 1409 1409 1409 1409 1409 1409 1409 1409 1409 1408 1408 1408 1407 1407 1407 1406 1406 1406 1405 1405 1404 1404 1404 1404 1404 1404 1403 1403 1403 1402 1402 1402 1402 1402 1401 1401 1400 1400 1399 1399 1399 1398 1398 1397 1397 1397